Home   Weather   York   Past weeks

Flag for United Kingdom Past Weather in York, England, United Kingdom — Yesterday and Last 2 Weeks

Now
64 °F

Partly sunny.


Feels Like: 64 °F
Forecast: 54 / 69 °F
Wind: 9 mph from Northwest

Location: Linton-On-Ouse

Current Time: Aug 20, 2017 at 1:01:37 pm

Latest Report: Aug 20, 2017 at 11:50 am


Visibility: N/A

Pressure: 30.15 "Hg

Humidity: 56%

Dew Point: 48 °F

Location of YorkLocation

Past Weather in York — Graph

°F

York Temperature Yesterday

Maximum temperature yesterday: 63 °F (at 5:50 pm)
Minimum temperature yesterday: 54 °F (at 12:50 am)
Average temperature yesterday: 58 °F

High & Low Weather Summary for the Past Weeks

 TemperatureHumidityPressure
High73 °F (Aug 17, 2:50 pm)100% (Aug 5, 7:50 pm)30.27 "Hg (Aug 5, 7:50 pm)
Low45 °F (Aug 13, 5:50 am)38% (Aug 13, 4:50 pm)29.65 "Hg (Aug 18, 2:50 am)
Average59 °F76%29.96 "Hg
* Reported Aug 5 10:50 am — Aug 20 10:50 am, York. Weather by CustomWeather, © 2017

Note: Actual official high and low records may vary slightly from our data, if they occured in-between our weather recording intervals... More about our weather records

Advertising

York Weather History for the Previous 24 Hours

Scroll right to see more
 ConditionsComfort  
Time TempWeatherWind HumidityBarometerVisibility
10:50 am
Sun, Aug 20
63 °FPassing clouds.14 mph56%30.12 "HgN/A
9:50 am63 °FPassing clouds.9 mph64%30.12 "HgN/A
8:50 am59 °FPassing clouds.8 mph72%30.12 "HgN/A
7:50 am55 °FSunny.6 mph82%30.09 "HgN/A
6:50 am52 °FSunny.3 mph88%30.09 "HgN/A
5:50 am54 °FSunny.9 mph82%30.07 "HgN/A
4:50 am54 °FClear.8 mph82%30.07 "HgN/A
3:50 am54 °FPassing clouds.10 mph82%30.07 "HgN/A
2:50 am55 °FPassing clouds.9 mph77%30.04 "HgN/A
1:50 am55 °FPassing clouds.8 mph77%30.04 "HgN/A
12:50 am55 °FPassing clouds.8 mph82%30.01 "HgN/A
11:50 pm
Sat, Aug 19
55 °FPassing clouds.10 mph82%30.01 "HgN/A
10:50 pm55 °FPassing clouds.10 mph82%30.01 "HgN/A
9:50 pm57 °FPassing clouds.13 mph77%29.98 "HgN/A
8:50 pm59 °FOvercast.10 mph72%29.98 "HgN/A
7:50 pm61 °FPartly sunny.12 mph63%29.95 "HgN/A
6:50 pm61 °FPartly sunny.17 mph63%29.95 "HgN/A
5:50 pm63 °FPartly sunny.16 mph59%29.92 "HgN/A
4:50 pm61 °FPartly sunny.15 mph59%29.92 "HgN/A
3:50 pm59 °FPartly sunny.18 mph68%29.92 "HgN/A
2:50 pm61 °FPartly sunny.17 mph63%29.92 "HgN/A
1:50 pm61 °FPartly sunny.18 mph63%29.89 "HgN/A
Weather by CustomWeather, © 2017

See weather overviewHow to use our weather pages